Year,Month,Day,Hour,Minute,Value (Times are PST for temperature in C)
2009,06,23,10,37,15.30
2009,06,23,10,38,15.30
2009,06,23,10,39,15.50
2009,06,23,10,40,15.60
2009,06,23,10,41,15.70
2009,06,23,10,42,15.80
2009,06,23,10,43,15.80
2009,06,23,10,44,15.90
2009,06,23,10,45,16.00
2009,06,23,10,46,16.10
2009,06,23,10,47,16.20
2009,06,23,10,48,16.20
2009,06,23,10,49,16.10
2009,06,23,10,50,16.10
2009,06,23,10,51,16.00
2009,06,23,10,52,15.90
2009,06,23,10,53,15.70
2009,06,23,10,54,15.70
2009,06,23,10,55,15.70
2009,06,23,10,56,15.70
2009,06,23,10,57,15.60
2009,06,23,10,58,15.50
2009,06,23,10,59,15.50
2009,06,23,11,00,15.40
2009,06,23,11,01,15.40
2009,06,23,11,02,15.40
2009,06,23,11,03,15.30
2009,06,23,11,04,15.30
2009,06,23,11,05,15.40
2009,06,23,11,06,15.50
2009,06,23,11,07,15.50
2009,06,23,11,08,15.60
2009,06,23,11,09,15.50
2009,06,23,11,10,15.50
2009,06,23,11,11,15.50
2009,06,23,11,12,15.60
2009,06,23,11,13,15.60
2009,06,23,11,14,15.60
2009,06,23,11,15,15.60
2009,06,23,11,16,15.60
2009,06,23,11,17,15.60
2009,06,23,11,18,15.60
2009,06,23,11,19,15.60
2009,06,23,11,20,15.60
2009,06,23,11,21,15.70
2009,06,23,11,22,15.70
2009,06,23,11,23,15.70
2009,06,23,11,24,15.70
2009,06,23,11,25,15.80
2009,06,23,11,26,15.90
2009,06,23,11,27,15.90
2009,06,23,11,28,15.90
2009,06,23,11,29,15.90
2009,06,23,11,30,16.00
2009,06,23,11,31,16.10
2009,06,23,11,32,16.10
2009,06,23,11,33,16.10
2009,06,23,11,34,16.10
2009,06,23,11,35,16.20
2009,06,23,11,36,16.20
2009,06,23,11,37,16.10
2009,06,23,11,38,16.10
2009,06,23,11,39,16.10
2009,06,23,11,40,16.10
2009,06,23,11,41,16.10
2009,06,23,11,42,16.10
2009,06,23,11,43,16.00
2009,06,23,11,44,16.00
2009,06,23,11,45,15.90
2009,06,23,11,46,16.10
2009,06,23,11,47,16.10
2009,06,23,11,48,16.20
2009,06,23,11,49,16.20
2009,06,23,11,50,16.20
2009,06,23,11,51,16.30
2009,06,23,11,52,16.30
2009,06,23,11,53,16.40
2009,06,23,11,54,16.60
2009,06,23,11,55,16.60
2009,06,23,11,56,16.60
2009,06,23,11,57,16.60
2009,06,23,11,58,16.70
2009,06,23,11,59,16.70
2009,06,23,12,00,16.70
2009,06,23,12,01,16.70
2009,06,23,12,02,16.70
2009,06,23,12,03,16.60
2009,06,23,12,04,16.60
2009,06,23,12,05,16.50
2009,06,23,12,06,16.50
2009,06,23,12,07,16.40
2009,06,23,12,08,16.30
2009,06,23,12,09,16.30
2009,06,23,12,10,16.20
2009,06,23,12,11,16.20
2009,06,23,12,12,16.20
2009,06,23,12,13,16.20
2009,06,23,12,14,16.20
2009,06,23,12,15,16.20
2009,06,23,12,16,16.30
2009,06,23,12,17,16.30
2009,06,23,12,18,16.50
2009,06,23,12,19,16.60
2009,06,23,12,20,16.60
2009,06,23,12,21,16.60
2009,06,23,12,22,16.50
2009,06,23,12,23,16.40
2009,06,23,12,24,16.50
2009,06,23,12,25,16.60
2009,06,23,12,26,16.70
2009,06,23,12,27,16.70
2009,06,23,12,28,16.80
2009,06,23,12,29,16.90
2009,06,23,12,30,16.90
2009,06,23,12,31,16.80
2009,06,23,12,32,16.70
2009,06,23,12,33,16.60
2009,06,23,12,34,16.70
2009,06,23,12,35,16.80
2009,06,23,12,36,16.80
2009,06,23,12,37,16.90
2009,06,23,12,38,17.00
2009,06,23,12,39,17.10
2009,06,23,12,40,17.20
2009,06,23,12,41,17.30
2009,06,23,12,42,17.30
2009,06,23,12,43,17.30
2009,06,23,12,44,17.20
2009,06,23,12,45,17.10
2009,06,23,12,46,17.10
2009,06,23,12,47,17.20
2009,06,23,12,48,17.30
2009,06,23,12,49,17.40
2009,06,23,12,50,17.40
2009,06,23,12,51,17.30
2009,06,23,12,52,17.20
2009,06,23,12,53,17.10
2009,06,23,12,54,17.00
2009,06,23,12,55,16.90
2009,06,23,12,56,16.80
2009,06,23,12,57,16.80
2009,06,23,12,58,16.80
2009,06,23,12,59,16.80
2009,06,23,13,00,16.80
2009,06,23,13,01,17.00
2009,06,23,13,02,17.20
2009,06,23,13,03,17.30
2009,06,23,13,04,17.40
2009,06,23,13,05,17.40
2009,06,23,13,06,17.50
2009,06,23,13,07,17.50
2009,06,23,13,08,17.60
2009,06,23,13,09,17.50
2009,06,23,13,10,17.60
2009,06,23,13,11,17.70
2009,06,23,13,12,17.90
2009,06,23,13,13,18.10
2009,06,23,13,14,18.30
2009,06,23,13,15,18.40
2009,06,23,13,16,18.40
2009,06,23,13,17,18.40
2009,06,23,13,18,18.50
2009,06,23,13,19,18.60
2009,06,23,13,20,18.70
2009,06,23,13,21,18.80
2009,06,23,13,22,18.80
2009,06,23,13,23,18.90
2009,06,23,13,24,19.00
2009,06,23,13,25,19.10
2009,06,23,13,26,19.10
2009,06,23,13,27,19.10
2009,06,23,13,28,19.20
2009,06,23,13,29,19.40
2009,06,23,13,30,19.50
2009,06,23,13,31,19.70
2009,06,23,13,32,19.60
2009,06,23,13,33,19.50
2009,06,23,13,34,19.50
2009,06,23,13,35,19.60
2009,06,23,13,36,19.60
2009,06,23,13,37,19.60
2009,06,23,13,38,19.50
2009,06,23,13,39,19.40
2009,06,23,13,40,19.30
2009,06,23,13,41,19.10
2009,06,23,13,42,19.00
2009,06,23,13,43,19.00
2009,06,23,13,44,18.90
2009,06,23,13,45,18.80
2009,06,23,13,46,18.70
2009,06,23,13,47,18.60
2009,06,23,13,48,18.50
2009,06,23,13,49,18.30
2009,06,23,13,50,18.30
2009,06,23,13,51,18.30
2009,06,23,13,52,18.50
2009,06,23,13,53,18.70
2009,06,23,13,54,19.00
2009,06,23,13,55,19.20
2009,06,23,13,56,19.40
2009,06,23,13,57,19.40
2009,06,23,13,58,19.30
2009,06,23,13,59,19.10
2009,06,23,14,00,18.80
2009,06,23,14,01,18.50
2009,06,23,14,02,18.40
2009,06,23,14,03,18.40
2009,06,23,14,04,18.30
2009,06,23,14,05,18.20
2009,06,23,14,06,18.00
2009,06,23,14,07,17.90
2009,06,23,14,08,17.80
2009,06,23,14,09,17.70
2009,06,23,14,10,17.70
2009,06,23,14,11,17.70
2009,06,23,14,12,17.70
2009,06,23,14,13,17.60
2009,06,23,14,14,17.60
2009,06,23,14,15,17.70
2009,06,23,14,16,17.60
2009,06,23,14,17,17.50
2009,06,23,14,18,17.30
2009,06,23,14,19,17.20
2009,06,23,14,20,17.10
2009,06,23,14,21,17.10
2009,06,23,14,22,17.10
2009,06,23,14,23,17.10
2009,06,23,14,24,17.10
2009,06,23,14,25,17.00
2009,06,23,14,26,16.90
2009,06,23,14,27,16.80
2009,06,23,14,28,16.90
2009,06,23,14,29,16.90
2009,06,23,14,30,16.90
2009,06,23,14,31,16.90
2009,06,23,14,32,16.90
2009,06,23,14,33,16.90
2009,06,23,14,34,16.90
2009,06,23,14,35,16.90
2009,06,23,14,36,17.00
2009,06,23,14,37,17.00
2009,06,23,14,38,17.00
2009,06,23,14,39,17.10
2009,06,23,14,40,17.30
2009,06,23,14,41,17.40
2009,06,23,14,42,17.60
2009,06,23,14,43,17.80
2009,06,23,14,44,17.90
2009,06,23,14,45,18.10
2009,06,23,14,46,18.30
2009,06,23,14,47,18.50
2009,06,23,14,48,18.70
2009,06,23,14,49,18.80
2009,06,23,14,50,18.90
2009,06,23,14,51,18.90
2009,06,23,14,52,19.00
2009,06,23,14,53,19.00
2009,06,23,14,54,19.10
2009,06,23,14,55,19.10
2009,06,23,14,56,19.10
2009,06,23,14,57,19.20
2009,06,23,14,58,19.30
2009,06,23,14,59,19.50
2009,06,23,15,00,19.50
2009,06,23,15,01,19.60
2009,06,23,15,02,19.70
2009,06,23,15,03,19.60
2009,06,23,15,04,19.60
2009,06,23,15,05,19.60
2009,06,23,15,06,19.70
2009,06,23,15,07,19.70
2009,06,23,15,08,19.70
2009,06,23,15,09,19.50
2009,06,23,15,10,19.20
2009,06,23,15,11,18.70
2009,06,23,15,12,18.40
2009,06,23,15,13,18.00
2009,06,23,15,14,17.70
2009,06,23,15,15,17.50
2009,06,23,15,16,17.50
2009,06,23,15,17,17.40
2009,06,23,15,18,17.30
2009,06,23,15,19,17.10
2009,06,23,15,20,17.00
2009,06,23,15,21,17.00
2009,06,23,15,22,17.00
2009,06,23,15,23,17.10
2009,06,23,15,24,17.20
2009,06,23,15,25,17.30
2009,06,23,15,26,17.40
2009,06,23,15,27,17.50
2009,06,23,15,28,17.50
2009,06,23,15,29,17.60
2009,06,23,15,30,17.60
2009,06,23,15,31,17.50
2009,06,23,15,32,17.60
2009,06,23,15,33,17.50
2009,06,23,15,34,17.40
2009,06,23,15,35,17.40
2009,06,23,15,36,17.30
2009,06,23,15,37,17.30
2009,06,23,15,38,17.40
2009,06,23,15,39,17.40
2009,06,23,15,40,17.50
2009,06,23,15,41,17.50
2009,06,23,15,42,17.60
2009,06,23,15,43,17.60
2009,06,23,15,44,17.60
2009,06,23,15,45,17.60
2009,06,23,15,46,17.50
2009,06,23,15,47,17.50
2009,06,23,15,48,17.50
2009,06,23,15,49,17.50
2009,06,23,15,50,17.60
2009,06,23,15,51,17.60
2009,06,23,15,52,17.50
2009,06,23,15,53,17.50
2009,06,23,15,54,17.40
2009,06,23,15,55,17.40
2009,06,23,15,56,17.30
2009,06,23,15,57,17.30
2009,06,23,15,58,17.30
2009,06,23,15,59,17.30
2009,06,23,16,00,17.30
2009,06,23,16,01,17.20
2009,06,23,16,02,17.20
2009,06,23,16,03,17.20
2009,06,23,16,04,17.30
2009,06,23,16,05,17.30
2009,06,23,16,06,17.30
2009,06,23,16,07,17.30
2009,06,23,16,08,17.30
2009,06,23,16,09,17.30
2009,06,23,16,10,17.30
2009,06,23,16,11,17.30
2009,06,23,16,12,17.30
2009,06,23,16,13,17.30
2009,06,23,16,14,17.30
2009,06,23,16,15,17.30
2009,06,23,16,16,17.20
2009,06,23,16,17,17.20
2009,06,23,16,18,17.10
2009,06,23,16,19,17.10
2009,06,23,16,20,17.10
2009,06,23,16,21,17.00
2009,06,23,16,22,17.00
2009,06,23,16,23,16.90
2009,06,23,16,24,16.90
2009,06,23,16,25,16.80
2009,06,23,16,26,16.80
2009,06,23,16,27,16.80
2009,06,23,16,28,16.80
2009,06,23,16,29,16.90
2009,06,23,16,30,16.80
2009,06,23,16,31,16.80
2009,06,23,16,32,16.90
2009,06,23,16,33,16.90
2009,06,23,16,34,17.00
2009,06,23,16,35,17.00
2009,06,23,16,36,17.10
2009,06,23,16,37,17.10
2009,06,23,16,38,17.10
2009,06,23,16,39,17.20
2009,06,23,16,40,17.30
2009,06,23,16,41,17.30
2009,06,23,16,42,17.40
2009,06,23,16,43,17.40
2009,06,23,16,44,17.40
2009,06,23,16,45,17.40
2009,06,23,16,46,17.40
2009,06,23,16,47,17.30
2009,06,23,16,48,17.20
2009,06,23,16,49,17.20
2009,06,23,16,50,17.10
2009,06,23,16,51,17.20
2009,06,23,16,52,17.20
2009,06,23,16,53,17.20
2009,06,23,16,54,17.30
2009,06,23,16,55,17.30
2009,06,23,16,56,17.30
2009,06,23,16,57,17.30
2009,06,23,16,58,17.30
2009,06,23,16,59,17.40
2009,06,23,17,00,17.40
2009,06,23,17,01,17.40
2009,06,23,17,02,17.50
2009,06,23,17,03,17.50
2009,06,23,17,04,17.60
2009,06,23,17,05,17.60
2009,06,23,17,06,17.70
2009,06,23,17,07,17.60
2009,06,23,17,08,17.50
2009,06,23,17,09,17.50
2009,06,23,17,10,17.40
2009,06,23,17,11,17.40
2009,06,23,17,12,17.30
2009,06,23,17,13,17.20
2009,06,23,17,14,17.20
2009,06,23,17,15,17.10
2009,06,23,17,16,17.10
2009,06,23,17,17,17.10
2009,06,23,17,18,17.10
2009,06,23,17,19,17.00
2009,06,23,17,20,17.00
2009,06,23,17,21,17.00
2009,06,23,17,22,17.00
2009,06,23,17,23,17.10
2009,06,23,17,24,17.10
2009,06,23,17,25,17.10
2009,06,23,17,26,17.00
2009,06,23,17,27,17.00
2009,06,23,17,28,16.90
2009,06,23,17,29,16.90
2009,06,23,17,30,17.00
2009,06,23,17,31,17.00
2009,06,23,17,32,17.00
2009,06,23,17,33,17.10
2009,06,23,17,34,17.10
2009,06,23,17,35,17.10
2009,06,23,17,36,17.10
2009,06,23,17,37,17.10
2009,06,23,17,38,17.10
2009,06,23,17,39,17.10
2009,06,23,17,40,17.10
2009,06,23,17,41,17.10
2009,06,23,17,42,17.10
2009,06,23,17,43,17.00
2009,06,23,17,44,16.90
2009,06,23,17,45,16.90
2009,06,23,17,46,16.80
2009,06,23,17,47,16.80
2009,06,23,17,48,16.80
2009,06,23,17,49,16.80
2009,06,23,17,50,16.90
2009,06,23,17,51,16.90
2009,06,23,17,52,17.00
2009,06,23,17,53,17.10
2009,06,23,17,54,17.20
2009,06,23,17,55,17.20
2009,06,23,17,56,17.20
2009,06,23,17,57,17.20
2009,06,23,17,58,17.20
2009,06,23,17,59,17.20
2009,06,23,18,00,17.20
2009,06,23,18,01,17.30
2009,06,23,18,02,17.30
2009,06,23,18,03,17.40
2009,06,23,18,04,17.40
2009,06,23,18,05,17.40
2009,06,23,18,06,17.30
2009,06,23,18,07,17.30
2009,06,23,18,08,17.30
2009,06,23,18,09,17.20
2009,06,23,18,10,17.10
2009,06,23,18,11,16.90
2009,06,23,18,12,16.80
2009,06,23,18,13,16.80
2009,06,23,18,14,16.80
2009,06,23,18,15,16.80
2009,06,23,18,16,16.80
2009,06,23,18,17,16.80
2009,06,23,18,18,16.80
2009,06,23,18,19,16.80
2009,06,23,18,20,16.80
2009,06,23,18,21,16.80
2009,06,23,18,22,16.90
2009,06,23,18,23,16.90
2009,06,23,18,24,16.90
2009,06,23,18,25,17.00
2009,06,23,18,26,17.10
2009,06,23,18,27,17.10
2009,06,23,18,28,17.20
2009,06,23,18,29,17.20
2009,06,23,18,30,17.20
2009,06,23,18,31,17.20
2009,06,23,18,32,17.20
2009,06,23,18,33,17.20
2009,06,23,18,34,17.30
2009,06,23,18,35,17.30
2009,06,23,18,36,17.30
2009,06,23,18,37,17.40
2009,06,23,18,38,17.40
2009,06,23,18,39,17.40
2009,06,23,18,40,17.40
2009,06,23,18,41,17.30
2009,06,23,18,42,17.30
2009,06,23,18,43,17.30
2009,06,23,18,44,17.20
2009,06,23,18,45,17.10
2009,06,23,18,46,17.00
2009,06,23,18,47,17.00
2009,06,23,18,48,16.90
2009,06,23,18,49,16.90
2009,06,23,18,50,16.80
2009,06,23,18,51,16.80
2009,06,23,18,52,16.80
2009,06,23,18,53,16.70
2009,06,23,18,54,16.70
2009,06,23,18,55,16.70
2009,06,23,18,56,16.70
2009,06,23,18,57,16.60
2009,06,23,18,58,16.50
2009,06,23,18,59,16.40
2009,06,23,19,00,16.40
2009,06,23,19,01,16.40
2009,06,23,19,02,16.40
2009,06,23,19,03,16.40
2009,06,23,19,04,16.40
2009,06,23,19,05,16.30
2009,06,23,19,06,16.30
2009,06,23,19,07,16.30
2009,06,23,19,08,16.20
2009,06,23,19,09,16.20
2009,06,23,19,10,16.20
2009,06,23,19,11,16.20
2009,06,23,19,12,16.20
2009,06,23,19,13,16.20
2009,06,23,19,14,16.20
2009,06,23,19,15,16.20
2009,06,23,19,16,16.20
2009,06,23,19,17,16.20
2009,06,23,19,18,16.20
2009,06,23,19,19,16.20
2009,06,23,19,20,16.20
2009,06,23,19,21,16.20
2009,06,23,19,22,16.20
2009,06,23,19,23,16.10
2009,06,23,19,24,16.00
2009,06,23,19,25,15.90
2009,06,23,19,26,15.90
2009,06,23,19,27,15.90
2009,06,23,19,28,15.80
2009,06,23,19,29,15.80
2009,06,23,19,30,15.80
2009,06,23,19,31,15.70
2009,06,23,19,32,15.60
2009,06,23,19,33,15.40
2009,06,23,19,34,15.30
2009,06,23,19,35,15.30
2009,06,23,19,36,15.30
2009,06,23,19,37,15.30
2009,06,23,19,38,15.30
2009,06,23,19,39,15.30
2009,06,23,19,40,15.30
2009,06,23,19,41,15.40
2009,06,23,19,42,15.40
2009,06,23,19,43,15.40
2009,06,23,19,44,15.40
2009,06,23,19,45,15.40
2009,06,23,19,46,15.40
2009,06,23,19,47,15.40
2009,06,23,19,48,15.40
2009,06,23,19,49,15.40
2009,06,23,19,50,15.40
2009,06,23,19,51,15.40
2009,06,23,19,52,15.40
2009,06,23,19,53,15.40
2009,06,23,19,54,15.40
2009,06,23,19,55,15.40
2009,06,23,19,56,15.40
2009,06,23,19,57,15.30
2009,06,23,19,58,15.30
2009,06,23,19,59,15.30
2009,06,23,20,00,15.30
2009,06,23,20,01,15.30
2009,06,23,20,02,15.30
2009,06,23,20,03,15.20
2009,06,23,20,04,15.20
2009,06,23,20,05,15.20
2009,06,23,20,06,15.10
2009,06,23,20,07,15.10
2009,06,23,20,08,15.00
2009,06,23,20,09,15.00
2009,06,23,20,10,15.00
2009,06,23,20,11,15.00
2009,06,23,20,12,14.90
2009,06,23,20,13,14.80
2009,06,23,20,14,14.70
2009,06,23,20,15,14.70
2009,06,23,20,16,14.60
2009,06,23,20,17,14.60
2009,06,23,20,18,14.60
2009,06,23,20,19,14.60
2009,06,23,20,20,14.60
2009,06,23,20,21,14.60
2009,06,23,20,22,14.60
2009,06,23,20,23,14.60
2009,06,23,20,24,14.60
2009,06,23,20,25,14.60
2009,06,23,20,26,14.50
2009,06,23,20,27,14.50
2009,06,23,20,28,14.50
2009,06,23,20,29,14.50
2009,06,23,20,30,14.50
2009,06,23,20,31,14.50
2009,06,23,20,32,14.50
2009,06,23,20,33,14.50
2009,06,23,20,34,14.50
2009,06,23,20,35,14.50
2009,06,23,20,36,14.50
2009,06,23,20,37,14.50
2009,06,23,20,38,14.50
2009,06,23,20,39,14.50
2009,06,23,20,40,14.50
2009,06,23,20,41,14.50
2009,06,23,20,42,14.50
